San Luis Potosi, Mexico

3:30 AM CST on December 18, 2017 (GMT -0600)
Ponciano Arriaga International

Weather History for MMSP - January, 2013

Change the Weather History Date:

Saturday, January 26, 2013

  Actual Average Record
Temperature  
Mean Temperature 56 °F -  
Max Temperature 78 °F 70 °F 82 °F (2017)
Min Temperature 35 °F 39 °F 26 °F (1999)
Degree Days  
Heating Degree Days 8    
Growing Degree Days 6 (Base 50)    
Moisture  
Dew Point 36 °F    
Average Humidity 55    
Maximum Humidity 92    
Minimum Humidity 15    
Precipitation  
Precipitation 0.00 in - - ()
Sea Level Pressure  
Sea Level Pressure 30.16 in    
Wind  
Wind Speed 1 mph ()    
Max Wind Speed 8 mph    
Max Gust Speed -    
Visibility 10.9 miles    
Events      
Averages and records for this station are not official NWS values.
T = Trace of Precipitation, MM = Missing Value Source: Averaged Metar Reports

Daily Weather History Graph

Daily Weather History Graph

Search for Another Location

Airport or City:

Trip Planner

Search our weather history database for the weather conditions in past years. The results will help you decide how hot, cold, wet, or windy it might be!

Date:

Astronomy

Jan. 26, 2013 Rise Set
Actual Time 7:24 AM CST 6:28 PM CST
Civil Twilight 7:00 AM CST 6:52 PM CST
Nautical Twilight 6:33 AM CST 7:19 PM CST
Astronomical Twilight 6:06 AM CST 7:46 PM CST
Moon 6:19 PM CST (1/26) 6:47 AM CST (1/26)
Length of Visible Light 11h 51m
Length of Day
11h 04m
Full, 100% of the Moon is Illuminated
Jan 26
Full
Jan 26
Full
Feb 3
Last Quarter
Feb 10
New
Feb 17
First Quarter

Hourly Weather History & Observations

Time (CST) Temp. Dew Point Humidity Pressure Visibility Wind Dir Wind Speed Gust Speed Precip Events Conditions
12:43 AM 46.4 °F 35.6 °F 66% 30.31 in 10.0 mi Calm Calm - N/A   Clear
1:46 AM 44.6 °F 35.6 °F 71% 30.31 in 10.0 mi Calm Calm - N/A   Clear
2:42 AM 42.8 °F 35.6 °F 76% 30.01 in 10.0 mi Calm Calm - N/A   Clear
2:50 AM 45 °F 41 °F 82% 30.08 in 5 mi North 2.2 mph - -  
3:43 AM 42.8 °F 37.4 °F 81% 30.28 in 10.0 mi Calm Calm - N/A   Clear
4:46 AM 41.0 °F 35.6 °F 81% 30.28 in 10.0 mi Calm Calm - N/A   Clear
5:44 AM 37.4 °F 32.0 °F 81% 30.04 in 8.0 mi Calm Calm - N/A   Clear
5:50 AM 39 °F 38 °F 92% 30.15 in 5 mi North 2.2 mph - -  
6:41 AM 37.4 °F 32.0 °F 81% 30.30 in 10.0 mi Calm Calm - N/A   Clear
7:43 AM 37.4 °F 32.0 °F 81% 30.30 in 10.0 mi Calm Calm - N/A   Clear
8:42 AM 44.6 °F 37.4 °F 76% 30.11 in 10.0 mi Calm Calm - N/A   Clear
8:50 AM 59 °F 40 °F 38% 30.27 in 9 mi East 4.5 mph - -   Haze
9:41 AM 51.8 °F 39.2 °F 62% 30.33 in 10.0 mi Calm Calm - N/A   Clear
10:41 AM 57.2 °F 35.6 °F 44% 30.33 in 15.0 mi Calm Calm - N/A   Clear
11:42 AM 64.4 °F 32.0 °F 30% 30.04 in 15.0 mi SE 4.6 mph - N/A   Clear
12:44 PM 69.8 °F 24.8 °F 18% 30.27 in 15.0 mi SSE 4.6 mph - N/A   Clear
1:44 PM 71.6 °F 24.8 °F 17% 30.23 in 15.0 mi SW 4.6 mph - N/A   Clear
2:50 PM 76 °F 54 °F 35% 30.09 in 12 mi North 4.5 mph - -  
3:47 PM 73.4 °F 23.0 °F 15% 30.18 in 15.0 mi Calm Calm - N/A   Scattered Clouds
4:47 PM 75.2 °F 26.6 °F 17% 30.16 in 15.0 mi Calm Calm - N/A   Scattered Clouds
5:44 PM 73.4 °F 23.0 °F 15% 29.91 in 15.0 mi ENE 8.1 mph - N/A   Scattered Clouds
5:50 PM 73 °F 57 °F 48% 29.90 in 12 mi North 4.5 mph - -  
6:50 PM 64.4 °F 33.8 °F 32% 30.19 in 12.0 mi ENE 5.8 mph - N/A   Scattered Clouds
7:50 PM 60.8 °F 35.6 °F 39% 30.20 in 12.0 mi Calm Calm - N/A   Partly Cloudy
8:50 PM 59 °F 56 °F 88% 29.90 in 5 mi East 2.2 mph - -  
8:56 PM 55.4 °F 39.2 °F 54% 30.00 in 12.0 mi SW 5.8 mph - N/A   Clear
9:40 PM 55.4 °F 35.6 °F 47% 30.24 in 10.0 mi WNW 6.9 mph - N/A   Clear
10:41 PM 53.6 °F 37.4 °F 54% 30.25 in 10.0 mi Calm Calm - N/A   Clear
11:44 PM 48.2 °F 35.6 °F 62% 29.96 in 10.0 mi SSE 6.9 mph - N/A   Clear